Regional Weather Roundup
Issued by NWS

Home | Current Version | Previous Version | Text Only | Print | Product List | Glossary On
Versions: 1 2 3 4 5 6 7 8 9 10 11 12 13 14 15 16 17 18 19 20 21 22 23 24 25 26 27 28 29 30 31 32 33 34 35 36 37 38 39 40 41 42 43 44 45 46 47 48 49 50
975
ASUS45 KTFX 050210
RWRMT
MONTANA REGIONAL WEATHER ROUNDUP
NATIONAL WEATHER SERVICE GREAT FALLS MT
700 PM MST SUN DEC 04 2016

NOTE: "FAIR" INDICATES FEW OR NO CLOUDS BELOW 12000 FEET WITH NO
SIGNIFICANT WEATHER AND/OR OBSTRUCTIONS TO VISIBILITY.

MTZ001>007-043-050300-
WEST OF THE DIVIDE

CITY           SKY/WX    TMP DP  RH WIND       PRES   REMARKS
KALISPELL      CLOUDY    31  24  75 SE3       29.64R
MISSOULA       LGT SNOW  30  27  88 W10       29.72R FOG     WCI  21
BUTTE          MIX PCPN  28  20  71 NW10      29.58S WCI  19
MULLAN PASS    CLOUDY    17  15  92 NW9G21    29.59S FOG     WCI   6
ANACONDA         N/A     28  21  74 SW3       29.62R
DEER LODGE       N/A     27  19  74 NW6       29.64R WCI  20
EUREKA           N/A     30  27  86 N7        29.65R WCI  23
HAMILTON         N/A     32  21  64 SE7       29.70R WCI  26
LIBBY            N/A     28  25  86 CALM      29.66R
PLAINS           N/A     29  25  85 NE2       29.74
RONAN            N/A     30  25  82 CALM      29.75R
$$

MTZ008-052>055-050300-
SOUTHWEST MONTANA

CITY           SKY/WX    TMP DP  RH WIND       PRES   REMARKS
BOZEMAN        CLOUDY    37  26  64 W10       29.55S WCI  30
DILLON         CLOUDY    30  26  85 SW16      29.57R WCI  19
ENNIS          CLOUDY    32  25  74 S17       29.60R WCI  21
$$

MTZ009-010-012-014-046-048-049-054-050300-
EAST SLOPES AND CENTRAL MONTANA

CITY           SKY/WX    TMP DP  RH WIND       PRES   REMARKS
CUT BANK       CLOUDY    21  17  84 N23G30    29.63R WCI   5
GREAT FALLS    CLOUDY    27  22  81 NW20G25   29.60R WCI  13
MALMSTROM AFB  CLOUDY    31  26  83 NW18G28   29.60R WCI  19
HELENA         CLOUDY    33  19  56 W10       29.60R WCI  25
AUGUSTA        LGT SNOW  23  21  95 N23G29    29.58R WCI   7
BOWMANS CRNR   MOCLDY    25  23  91 N13       29.56R WCI  14
CHOTEAU          N/A     25  19  80 NW21G29   29.63R WCI  10
CONRAD           N/A     24  24 100 NW9       29.68R WCI  14
FAIRFIELD      FLURRIES  24  19  81 NW22G28   29.60R WCI   8
POWER          MOCLDY    23  20  89 NW21G29   29.59R WCI   7
RAYNESFORD     LGT SNOW  29  26  89 W17G23    29.58R WCI  16
ULM            MOCLDY    29  27  90 NW10      29.59R WCI  20
$$

MTZ011-013-016-021-045-047-050-051-050300-
NORTH CENTRAL MONTANA

CITY           SKY/WX    TMP DP  RH WIND       PRES   REMARKS
HAVRE          CLOUDY    31  27  85 NW20      29.54R WCI  19
LEWISTOWN      LGT SNOW  28  25  88 NW17G31   29.53R FOG     WCI  16
N BAR RANCH    LGT SNOW  30  28  93 NW23      29.50R VSB 3/4 WCI  17
CHINOOK          N/A     32  30  93 W6        29.52R WCI  26
DENTON         FLURRIES  29  27  92 NW15      29.51R WCI  17
GEYSER         FLURRIES  30  23  75 W7G20     29.55R WCI  23
GRASS RANGE    FLURRIES  31  29  92 W13       29.49R WCI  22
JUDITH GAP     FLURRIES  27  25  93 N23G32    29.52R WCI  13
ROY            SNOWSHWR  31  30  95 MISG      29.51R
STANFORD       LGT SNOW  27  26  97 NW17G25   29.54R WCI  14
WINIFRED       SNOWSHWR  29  28  97 MISG      29.53R
$$

MTZ017>020-022>027-061-062-050300-
NORTHEAST MONTANA

CITY           SKY/WX    TMP DP  RH WIND       PRES   REMARKS
GLASGOW        CLOUDY    33  31  92 W7        29.48F WCI  27
JORDAN           N/A     34  25  69 SW7       29.46F WCI  28
SIDNEY         CLOUDY    28  24  85 S5        29.54F
WOLF POINT     CLOUDY    32  25  75 E5        29.50F
PLENTYWOOD       N/A     27  23  86 E5        29.51F
POPLAR           N/A     34  27  75 SE3       29.52S
SCOBEY           N/A     29  18  63 CALM      29.52S
$$

MTZ028>42-056>058-050300-
SOUTHCENTRAL AND SOUTHEAST MONTANA

CITY           SKY/WX    TMP DP  RH WIND       PRES   REMARKS
BAKER          MOCLDY    29  21  72 S13       29.55F WCI  19
BILLINGS       MOCLDY    39  24  55 W12       29.50F WCI  32
LIVINGSTON     LGT SNOW  36  28  73 W23G30    29.51R WCI  24
MILES CITY     CLEAR     32  22  66 S9        29.51F WCI  24
BIG TIMBER     CLOUDY    37  25  60 W18G28    29.52R WCI  27
EKALAKA          N/A     35  18  50 SE5       29.56F
FORSYTH          N/A     37  25  60 SW6       29.51S
HARLOWTON      MOCLDY    34  24  68 W18       29.53R WCI  23
LAUREL           N/A     37  16  43 SW5       29.53
ROUNDUP          N/A     37  26  65 W8        29.48R WCI  31
$$

REGIONAL REPORTS...DAKOTAS

CITY           SKY/WX    TMP DP  RH WIND       PRES   REMARKS
WILLISTON      CLOUDY    24  19  81 CALM      29.55F
MINOT          CLOUDY    15  13  91 SE5       29.60F
DICKINSON      CLOUDY    23  17  78 S9        29.55F WCI  13
BEACH          CLOUDY    32  25  74 SW8       29.57F WCI  25
CROSBY         MOCLDY    19  19 100 CALM      29.59S
TIOGA            N/A     16  16 100 E3        29.58S
WATFORD CITY     N/A     27  21  80 SE5       29.56F
BISMARCK       CLEAR     17  14  88 E5        29.65F
GRAND FORKS    CLOUDY    30  25  81 W10       29.66R WCI  21
FARGO          MOCLDY    28  25  88 SW3       29.68F
BUFFALO SD       N/A     33  22  63 S7        29.51F WCI  27
RAPID CITY     CLOUDY    35  18  49 S8        29.61F WCI  29
$$

REGIONAL REPORTS...WYOMING/IDAHO/WASHINGTON

CITY           SKY/WX    TMP DP  RH WIND       PRES   REMARKS
GILLETTE       CLOUDY    38  22  52 SW13      29.55F WCI  30
SHERIDAN       CLOUDY    32  22  66 SW6       29.53F WCI  26
BUFFALO WY     CLOUDY    34  17  50 W9        29.53F WCI  27
CODY           CLOUDY    34  26  72 SE7       29.55  WCI  28
YELLOWSTONE LA   N/A     25  22  88 W10G20    29.58F WCI  15
IDAHO FALLS    CLOUDY    37  28  70 SW29G38   29.69F WCI  25
SALMON         CLOUDY    27  25  93 CALM      29.67R
BOISE          LGT RAIN  39  35  86 NW16      29.84R WCI  30
SPOKANE        CLOUDY    31  22  69 W18       29.82R WCI  19
$$

REGIONAL REPORTS...ALBERTA

CITY           SKY/WX    TMP DP  RH WIND       PRES   REMARKS
EDMONTON       LGT SNOW  10   5  79 NW23G32   29.78R WCI -10
CALGARY        CLOUDY    18   9  68 NW6       29.68R WCI   9
LETHBRIDGE     CLOUDY    23  21  93 N5        29.70R
MEDICINE HAT   CLOUDY    27  18  69 NW10      29.66S WCI  17
WATERTON GATE    N/A     19  18  93 NE3         N/A
CARDSTON         N/A     21  19  93 N9          N/A  WCI  11
MILK RIVER       N/A     21  21 100 N16         N/A  WCI   7
$$

REGIONAL REPORTS...SASKATCHEWAN

CITY           SKY/WX    TMP DP  RH WIND       PRES   REMARKS
SWIFT CURRENT  MOCLDY    18  18 100 N3        29.53R
REGINA         CLOUDY    19  18  93 E8        29.56S WCI   9
SASKATOON      PTCLDY    16  10  79 W7        29.60S WCI   6
ASSINIBOIA       N/A     14   9  79 NW22G28     N/A  WCI  -4
$$




USA.gov is the U.S. government's official web portal to all federal, state and local government web resources and services.